FW7433 Weather Reports


Display with metric or nautical units.
time (UTC)temp
F
wind
direction
speed
MPH
gust
MPH
rain 1hr
in
rain 24hr
in
rain mn
in
humidity
%
barometer
mb
20260902173543 74 344 0.0 1.0 0.00 0.34 0.00 73 1021.9
20260902173019 73 319 0.0 0.0 0.00 0.47 0.00 73 1022.0
20260902172602 73 230 0.0 2.0 0.00 0.47 0.00 73 1022.0
20260902172041 73 215 0.0 4.0 0.00 0.47 0.00 74 1022.2
20260902171520 73 134 0.0 4.0 0.00 0.47 0.00 74 1022.3
20260902171104 73 79 0.0 2.0 0.00 0.47 0.00 75 1022.1
20260902170539 73 111 0.0 2.0 0.00 0.47 0.00 76 1022.3
20260902170020 72 230 0.0 1.0 0.00 0.47 0.00 75 1022.4
20260902165603 72 169 0.0 1.0 0.00 0.47 0.00 77 1022.4
20260902165039 72 166 0.0 2.0 0.00 0.47 0.00 77 1022.5
20260902164518 71 219 0.0 4.0 0.00 0.47 0.00 77 1022.5
20260902164101 71 219 0.0 4.0 0.00 0.47 0.00 78 1022.4
20260902163543 71 44 0.0 2.0 0.00 0.47 0.00 80 1022.5
20260902163019 71 186 0.0 1.0 0.00 0.47 0.00 80 1022.6
20260902162605 70 186 0.0 1.0 0.00 0.47 0.00 79 1022.5
20260902162043 70 207 0.0 2.0 0.00 0.47 0.00 82 1022.6
20260902161527 70 211 0.0 2.0 0.00 0.47 0.00 80 1022.6
20260902161058 69 34 0.0 4.0 0.00 0.47 0.00 81 1022.5
20260902160532 69 270 0.0 6.0 0.00 0.47 0.00 82 1022.5
20260902160010 69 250 0.0 7.0 0.00 0.47 0.00 80 1022.6
20260902155552 69 249 1.0 6.0 0.00 0.47 0.00 82 1022.7
20260902155032 68 222 0.0 4.0 0.00 0.47 0.00 83 1022.8
20260902154511 68 229 0.0 1.0 0.00 0.47 0.00 84 1023.0
20260902154055 68 236 0.0 4.0 0.00 0.47 0.00 83 1023.2
20260902153535 68 234 0.0 8.0 0.00 0.47 0.00 86 1023.1
20260902153013 67 259 1.0 8.0 0.00 0.48 0.00 84 1023.1
20260902152557 67 240 0.0 2.0 0.00 0.48 0.00 86 1023.2
20260902152038 67 226 0.0 4.0 0.00 0.48 0.00 86 1023.3
20260902151515 66 192 0.0 1.0 0.00 0.48 0.00 87 1023.3
20260902151056 66 182 0.0 4.0 0.00 0.48 0.00 88 1023.4
20260902150534 66 134 0.0 4.0 0.00 0.48 0.00 87 1023.3
20260902150013 66 130 0.0 2.0 0.00 0.48 0.00 90 1023.2
20260902145554 65 221 0.0 2.0 0.00 0.48 0.00 90 1023.2
20260902145036 65 188 0.0 2.0 0.00 0.48 0.00 90 1023.2
20260902144510 65 211 0.0 4.0 0.00 0.48 0.00 91 1023.2
20260902144053 65 214 0.0 4.0 0.00 0.48 0.00 91 1023.2
20260902143530 65 222 0.0 4.0 0.00 0.48 0.00 92 1023.1
20260902143010 65 230 0.0 1.0 0.00 0.54 0.00 94 1023.0
20260902142551 64 230 0.0 1.0 0.00 0.54 0.00 94 1022.9
20260902142029 64 230 0.0 2.0 0.00 0.54 0.00 94 1023.0
20260902141507 64 230 0.0 2.0 0.00 0.54 0.00 95 1022.9
20260902141049 64 219 0.0 4.0 0.00 0.54 0.00 94 1022.8
20260902140528 64 209 0.0 3.0 0.00 0.54 0.00 95 1022.7
20260902140006 64 222 0.0 3.0 0.00 0.54 0.00 95 1022.6
20260902135549 64 332 0.0 1.0 0.00 0.54 0.00 96 1022.6
20260902135027 64 79 0.0 2.0 0.00 0.54 0.00 96 1022.6
20260902134509 64 222 0.0 4.0 0.00 0.54 0.00 96 1022.6
20260902134048 64 260 0.0 5.0 0.00 0.54 0.00 96 1022.6
20260902133530 64 226 0.0 4.0 0.00 0.54 0.00 97 1022.6
20260902133005 64 227 1.0 4.0 0.00 0.59 0.00 97 1022.4
20260902132546 64 284 0.0 4.0 0.00 0.59 0.00 97 1022.3
20260902132027 64 210 0.0 2.0 0.00 0.59 0.00 97 1022.3
20260902131504 64 248 0.0 4.0 0.00 0.59 0.00 97 1022.3
20260902131048 64 216 0.0 4.0 0.00 0.59 0.00 97 1022.3
20260902130525 63 228 0.0 5.0 0.00 0.59 0.00 97 1022.5
20260902130005 63 218 0.0 1.0 0.00 0.59 0.00 97 1022.4
20260902125545 63 218 0.0 2.0 0.00 0.59 0.00 97 1022.4
20260902125025 63 226 0.0 2.0 0.00 0.59 0.00 98 1022.6
20260902124504 63 226 0.0 1.0 0.00 0.59 0.00 97 1022.6
20260902124046 63 226 0.0 2.0 0.00 0.59 0.00 97 1022.7
20260902123528 62 226 0.0 2.0 0.00 0.59 0.00 97 1022.6
20260902123004 62 226 0.0 0.0 0.00 0.63 0.00 97 1022.7
20260902122546 62 226 0.0 1.0 0.00 0.63 0.00 97 1022.6
20260902122024 62 226 0.0 2.0 0.00 0.63 0.00 97 1022.6
20260902121502 62 226 0.0 2.0 0.00 0.63 0.00 97 1022.6
20260902121045 62 226 0.0 0.0 0.00 0.63 0.00 97 1022.8
20260902120523 62 226 0.0 0.0 0.00 0.63 0.00 97 1022.9
20260902120044 61 226 0.0 0.0 0.00 0.63 0.00 97 1022.9
20260902115528 61 226 0.0 0.0 0.00 0.63 0.00 97 1023.2
20260902115003 61 226 0.0 0.0 0.00 0.63 0.00 97 1023.1
20260902114547 61 226 0.0 0.0 0.00 0.63 0.00 97 1023.1
20260902114030 61 226 0.0 0.0 0.00 0.63 0.00 97 1023.2
20260902113502 61 226 0.0 0.0 0.00 0.63 0.00 97 1023.1
20260902113046 61 226 0.0 0.0 0.00 0.63 0.00 97 1023.0
20260902112524 61 226 0.0 0.0 0.00 0.63 0.00 97 1022.9
20260902112003 60 226 0.0 0.0 0.00 0.63 0.00 97 1022.8
20260902111549 60 226 0.0 0.0 0.00 0.63 0.00 97 1022.8
20260902111025 60 226 0.0 0.0 0.00 0.63 0.00 97 1022.8
20260902110506 60 226 0.0 0.0 0.00 0.63 0.00 97 1022.8
20260902110047 60 226 0.0 0.0 0.00 0.63 0.00 97 1022.8
20260902105525 60 226 0.0 2.0 0.00 0.63 0.00 97 1022.7
20260902105010 60 226 0.0 2.0 0.00 0.63 0.00 97 1022.7
20260902104548 60 241 0.0 0.0 0.00 0.63 0.00 97 1022.5
20260902104028 60 241 0.0 0.0 0.00 0.63 0.00 97 1022.3
20260902103505 60 241 0.0 0.0 0.00 0.63 0.00 97 1022.4
20260902103050 60 241 0.0 0.0 0.00 0.63 0.00 97 1022.3
20260902102528 60 241 0.0 0.0 0.00 0.63 0.00 97 1022.4
20260902102007 60 241 0.0 0.0 0.00 0.63 0.00 97 1022.3
20260902101550 60 241 0.0 0.0 0.00 0.63 0.00 97 1022.3
20260902101033 60 241 0.0 0.0 0.00 0.63 0.00 97 1022.2
20260902100506 60 241 0.0 0.0 0.00 0.63 0.00 97 1022.2
20260902100050 60 241 0.0 0.0 0.00 0.63 0.00 97 1022.2
20260902095527 60 241 0.0 0.0 0.00 0.63 0.00 97 1021.9
20260902095006 60 241 0.0 0.0 0.00 0.63 0.00 97 1021.8
20260902094554 60 241 0.0 0.0 0.00 0.63 0.00 97 1021.8
20260902094028 60 241 0.0 0.0 0.00 0.63 0.00 97 1021.8
20260902093507 60 241 0.0 0.0 0.00 0.63 0.00 97 1021.7
20260902093050 60 241 0.0 0.0 0.00 0.63 0.00 97 1021.8
20260902092528 60 241 0.0 0.0 0.00 0.63 0.00 97 1021.7
20260902092006 60 241 0.0 0.0 0.00 0.63 0.00 97 1021.6
20260902091551 60 241 0.0 0.0 0.00 0.63 0.00 97 1021.6
20260902091029 60 241 0.0 0.0 0.00 0.63 0.00 97 1021.6
20260902090508 60 241 0.0 1.0 0.00 0.63 0.00 97 1021.6
20260902090052 60 241 0.0 1.0 0.00 0.63 0.00 97 1021.5
20260902085529 60 196 0.0 1.0 0.00 0.63 0.00 97 1021.5
20260902085009 60 196 0.0 1.0 0.00 0.63 0.00 97 1021.5
20260902084555 60 196 0.0 1.0 0.00 0.63 0.00 97 1021.4
20260902084031 60 196 0.0 0.0 0.00 0.63 0.00 97 1021.6
20260902083516 60 196 0.0 0.0 0.00 0.63 0.00 97 1021.6
20260902083053 60 196 0.0 0.0 0.00 0.63 0.00 97 1021.5
20260902082532 60 196 0.0 0.0 0.00 0.63 0.00 97 1021.5
20260902082014 60 196 0.0 0.0 0.00 0.63 0.00 97 1021.3
20260902081556 60 196 0.0 0.0 0.00 0.63 0.00 97 1021.3
20260902081032 60 196 0.0 0.0 0.00 0.63 0.00 97 1021.3
20260902080512 60 196 0.0 0.0 0.00 0.63 0.00 97 1021.4
20260902080055 60 196 0.0 0.0 0.00 0.63 0.00 97 1021.3
20260902075533 60 196 0.0 0.0 0.00 0.63 0.00 97 1021.3
20260902075014 60 196 0.0 0.0 0.00 0.63 0.00 97 1021.4
20260902074610 60 196 0.0 0.0 0.00 0.63 0.00 97 1021.5
20260902074035 60 196 0.0 0.0 0.00 0.63 0.00 97 1021.6
20260902073512 60 196 0.0 0.0 0.00 0.63 0.00 97 1021.7
20260902073055 60 196 0.0 0.0 0.00 0.63 0.00 97 1021.7
20260902072533 60 196 0.0 1.0 0.00 0.63 0.00 97 1021.7
20260902072015 60 180 0.0 0.0 0.00 0.63 0.00 97 1021.6
20260902071557 60 180 0.0 0.0 0.00 0.63 0.00 97 1021.5
20260902071034 60 180 0.0 0.0 0.00 0.63 0.00 97 1021.4
20260902070513 60 180 0.0 1.0 0.00 0.63 0.00 97 1021.4
20260902070056 60 180 0.0 0.0 0.00 0.63 0.00 97 1021.4
20260902065536 60 180 0.0 2.0 0.00 0.63 0.00 97 1021.5
20260902065017 60 214 0.0 0.0 0.00 0.63 0.00 97 1021.5
20260902064600 60 214 0.0 0.0 0.00 0.63 0.00 97 1021.6
20260902064038 60 214 0.0 0.0 0.00 0.63 0.00 97 1021.5
20260902063522 60 214 0.0 0.0 0.00 0.63 0.00 97 1021.4
20260902063116 60 214 0.0 0.0 0.00 0.63 0.00 97 1021.3
20260902062540 60 214 0.0 0.0 0.00 0.63 0.00 97 1021.3
20260902062019 60 214 0.0 1.0 0.00 0.63 0.00 97 1021.4
20260902061600 60 214 0.0 4.0 0.00 0.63 0.00 97 1021.3
20260902061041 60 214 0.0 4.0 0.00 0.63 0.00 97 1021.3
20260902060520 59 167 0.0 0.0 0.00 0.63 0.00 97 1021.1
20260902060000 59 167 0.0 0.0 0.00 0.63 0.00 97 1021.2
20260902055543 59 167 0.0 0.0 0.00 0.63 0.00 97 1021.3
20260902055022 59 167 0.0 0.0 0.00 0.63 0.00 97 1021.3
20260902054504 59 167 0.0 0.0 0.00 0.63 0.00 97 1021.2
20260902054047 59 167 0.0 0.0 0.00 0.63 0.00 97 1021.3
20260902053522 59 167 0.0 0.0 0.00 0.63 0.00 97 1021.4
20260902053000 59 167 0.0 0.0 0.00 0.63 0.63 97 1021.3
20260902052545 59 167 0.0 0.0 0.00 0.63 0.63 97 1021.2
20260902052021 59 167 0.0 0.0 0.00 0.63 0.63 97 1021.1
20260902051608 59 167 0.0 0.0 0.00 0.63 0.63 97 1021.1
20260902051043 59 167 0.0 0.0 0.00 0.63 0.63 97 1021.1
20260902050522 59 167 0.0 0.0 0.00 0.63 0.63 97 1021.0
20260902050002 59 167 0.0 0.0 0.00 0.63 0.63 97 1021.1
20260902045544 59 167 0.0 0.0 0.00 0.63 0.63 97 1021.1
20260902045022 59 167 0.0 0.0 0.00 0.63 0.63 96 1021.2
20260902044503 59 167 0.0 0.0 0.00 0.63 0.63 96 1021.1
20260902044044 59 167 0.0 0.0 0.00 0.63 0.63 96 1021.0
20260902043522 59 167 0.0 0.0 0.00 0.63 0.63 96 1021.1
20260902043001 59 167 0.0 0.0 0.00 0.63 0.63 96 1021.0
20260902042547 59 167 0.0 0.0 0.00 0.63 0.63 96 1020.9
20260902042024 59 167 0.0 0.0 0.00 0.63 0.63 96 1020.9
20260902041502 59 167 0.0 0.0 0.00 0.63 0.63 96 1020.8
20260902041044 59 167 0.0 0.0 0.00 0.63 0.63 96 1020.8
20260902040524 59 167 0.0 0.0 0.00 0.63 0.63 96 1021.0
20260902040045 59 167 0.0 0.0 0.00 0.63 0.63 96 1020.9
20260902035522 60 167 0.0 0.0 0.00 0.63 0.63 97 1020.4
20260902035006 60 167 0.0 0.0 0.00 0.63 0.63 97 1020.5
20260902034550 59 167 0.0 0.0 0.00 0.63 0.63 97 1020.4
20260902034025 59 167 0.0 0.0 0.00 0.63 0.63 97 1020.2
20260902033504 59 167 0.0 0.0 0.00 0.63 0.63 97 1020.2
20260902033051 60 167 0.0 0.0 0.00 0.63 0.63 97 1020.2
20260902032528 60 167 0.0 0.0 0.00 0.63 0.63 97 1020.3
20260902032004 59 167 0.0 0.0 0.00 0.63 0.63 96 1020.2
20260902031548 59 167 0.0 0.0 0.00 0.63 0.63 96 1020.3
20260902031027 59 167 0.0 0.0 0.00 0.63 0.63 96 1020.3
20260902030501 59 167 0.0 0.0 0.00 0.63 0.63 96 1020.2
20260902030049 59 167 0.0 0.0 0.00 0.63 0.63 96 1020.2
20260902025525 59 167 0.0 0.0 0.00 0.63 0.63 96 1020.3
20260902025004 59 167 0.0 0.0 0.00 0.63 0.63 96 1020.1
20260902024549 60 167 0.0 0.0 0.00 0.63 0.63 96 1020.1
20260902024025 60 167 0.0 0.0 0.00 0.63 0.63 97 1020.3
20260902023505 60 167 0.0 0.0 0.00 0.63 0.63 97 1020.1
20260902023047 59 167 0.0 0.0 0.00 0.63 0.63 97 1020.1
20260902022526 60 167 0.0 0.0 0.00 0.63 0.63 97 1020.1
20260902022005 59 167 0.0 0.0 0.00 0.63 0.63 97 1020.2
20260902021551 59 167 0.0 0.0 0.00 0.63 0.63 97 1020.4
20260902021027 59 167 0.0 0.0 0.00 0.63 0.63 96 1020.2
20260902020508 59 167 0.0 1.0 0.00 0.63 0.63 96 1020.2
20260902020051 59 167 0.0 0.0 0.00 0.63 0.63 96 1020.2
20260902015527 59 167 0.0 0.0 0.00 0.63 0.63 96 1020.3
20260902015007 59 167 0.0 0.0 0.00 0.63 0.63 96 1020.1
20260902014555 59 167 0.0 0.0 0.00 0.63 0.63 96 1020.1
20260902014030 59 167 0.0 0.0 0.00 0.63 0.63 96 1020.1
20260902013509 59 167 0.0 0.0 0.00 0.63 0.63 96 1020.2
20260902013058 59 167 0.0 0.0 0.00 0.63 0.63 96 1020.2
20260902012535 59 167 0.0 0.0 0.00 0.63 0.63 96 1020.3
20260902012014 59 167 0.0 0.0 0.00 0.63 0.63 96 1020.1
20260902011554 59 167 0.0 0.0 0.00 0.63 0.63 96 1019.9
20260902011033 59 167 0.0 0.0 0.00 0.63 0.63 96 1019.9
20260902010509 59 167 0.0 0.0 0.00 0.63 0.63 96 1020.0
20260902010056 59 167 0.0 0.0 0.00 0.63 0.63 96 1020.0
20260902005532 60 167 0.0 0.0 0.00 0.63 0.63 96 1020.0
20260902005013 60 167 0.0 0.0 0.00 0.63 0.63 96 1020.0
20260902004559 60 167 0.0 0.0 0.00 0.63 0.63 96 1020.0
20260902004033 60 167 0.0 0.0 0.00 0.63 0.63 96 1019.8
20260902003510 60 167 0.0 0.0 0.00 0.63 0.63 96 1019.7
20260902003127 60 167 0.0 0.0 0.00 0.63 0.63 96 1019.8
20260902002527 60 167 0.0 0.0 0.00 0.63 0.63 96 1019.7
20260902002007 60 167 0.0 0.0 0.00 0.63 0.63 96 1019.6
20260902001550 60 167 0.0 0.0 0.00 0.63 0.63 96 1019.6
20260902001028 60 167 0.0 0.0 0.00 0.63 0.63 96 1019.7
20260902000512 60 167 0.0 0.0 0.00 0.63 0.63 96 1019.8
20260902000050 60 167 0.0 0.0 0.00 0.63 0.63 96 1019.8
20260901235528 60 167 0.0 0.0 0.00 0.63 0.63 96 1019.8
20260901235006 60 167 0.0 0.0 0.00 0.63 0.63 96 1019.8
20260901234552 60 167 0.0 0.0 0.00 0.63 0.63 96 1019.7
20260901234030 60 167 0.0 0.0 0.00 0.63 0.63 96 1019.5
20260901233511 60 167 0.0 0.0 0.00 0.63 0.63 96 1019.5
20260901233053 60 167 0.0 0.0 0.00 0.63 0.63 96 1019.3
20260901232531 60 167 0.0 0.0 0.00 0.63 0.63 96 1019.5
20260901232009 60 167 0.0 0.0 0.00 0.63 0.63 96 1019.5
20260901231600 60 167 0.0 0.0 0.00 0.63 0.63 96 1019.6
20260901231034 59 167 0.0 0.0 0.00 0.63 0.63 96 1019.6
20260901230509 60 167 0.0 0.0 0.00 0.63 0.63 96 1019.6
20260901230052 59 167 0.0 0.0 0.00 0.63 0.63 96 1019.6
20260901225532 60 167 0.0 0.0 0.00 0.63 0.63 96 1019.6
20260901225009 60 167 0.0 0.0 0.00 0.63 0.63 96 1019.5
20260901224552 60 167 0.0 0.0 0.00 0.63 0.63 96 1019.4
20260901224030 59 167 0.0 0.0 0.00 0.63 0.63 96 1019.5
20260901223509 59 167 0.0 0.0 0.00 0.63 0.63 96 1019.6
20260901223053 59 167 0.0 1.0 0.00 0.63 0.63 96 1019.6
20260901222536 59 167 0.0 1.0 0.00 0.63 0.63 96 1019.5
20260901222008 59 174 0.0 1.0 0.00 0.63 0.63 96 1019.5
20260901221551 59 116 0.0 0.0 0.00 0.63 0.63 96 1019.5
20260901221031 59 86 0.0 0.0 0.00 0.63 0.63 96 1019.6
20260901220510 59 86 0.0 0.0 0.00 0.63 0.63 96 1019.6
20260901220053 59 86 0.0 2.0 0.01 0.63 0.63 96 1019.7
20260901215532 59 86 0.0 2.0 0.01 0.63 0.63 96 1019.6
20260901215014 59 241 0.0 2.0 0.01 0.63 0.63 96 1019.6
20260901214555 59 188 0.0 0.0 0.01 0.63 0.63 96 1019.5
20260901214034 59 188 0.0 2.0 0.01 0.63 0.63 96 1019.6
20260901213511 59 188 0.0 2.0 0.01 0.63 0.63 96 1019.7
20260901213056 59 215 0.0 1.0 0.01 0.63 0.63 96 1019.6
20260901212532 59 197 0.0 1.0 0.02 0.63 0.63 96 1019.3
20260901212009 59 197 0.0 2.0 0.02 0.63 0.63 96 1019.4
20260901211553 59 197 0.0 2.0 0.03 0.63 0.63 96 1019.4
20260901211031 60 188 0.0 2.0 0.04 0.63 0.63 95 1019.4
20260901210510 60 220 0.0 2.0 0.05 0.63 0.63 96 1019.3
20260901210120 60 28 0.0 2.0 0.05 0.62 0.62 96 1019.3
20260901205531 60 257 0.0 0.0 0.07 0.62 0.62 95 1019.3
20260901205013 60 257 0.0 0.0 0.08 0.62 0.62 96 1019.3
20260901204552 60 257 0.0 1.0 0.08 0.62 0.62 96 1019.2
20260901204030 60 257 0.0 2.0 0.09 0.62 0.62 96 1019.1
20260901203511 60 307 0.0 4.0 0.11 0.62 0.62 96 1019.0
20260901203053 60 307 0.0 4.0 0.11 0.61 0.61 96 1019.0
20260901202531 60 182 0.0 4.0 0.13 0.61 0.61 96 1019.1
20260901202011 60 40 0.0 4.0 0.13 0.60 0.60 95 1019.1
20260901201555 60 208 0.0 4.0 0.14 0.60 0.60 96 1019.0
20260901201034 60 228 0.0 1.0 0.14 0.59 0.59 95 1019.0
20260901200512 60 228 0.0 0.0 0.14 0.57 0.57 95 1019.1
20260901200033 60 228 0.0 0.0 0.13 0.56 0.56 95 1019.1
20260901195513 60 228 0.0 4.0 0.12 0.55 0.55 95 1019.1
20260901195059 60 228 0.0 5.0 0.12 0.54 0.54 95 1019.1
20260901194535 60 245 0.0 5.0 0.13 0.54 0.54 95 1019.1
20260901194017 60 244 0.0 4.0 0.12 0.53 0.53 95 1019.1
20260901193559 60 244 0.0 4.0 0.10 0.51 0.51 95 1019.1
20260901193040 60 238 0.0 1.0 0.09 0.49 0.49 95 1019.0
20260901192513 60 234 0.0 4.0 0.08 0.48 0.48 95 1018.9
20260901192056 61 234 0.0 4.0 0.09 0.47 0.47 95 1018.9
20260901191538 61 232 0.0 2.0 0.09 0.46 0.46 95 1018.8
20260901191012 61 220 0.0 4.0 0.08 0.45 0.45 95 1018.8
20260901190554 61 220 0.0 4.0 0.07 0.44 0.44 95 1018.8
20260901190044 61 207 0.0 2.0 0.06 0.43 0.43 95 1018.7
20260901185517 61 207 0.0 2.0 0.07 0.43 0.43 95 1018.8
20260901185059 61 207 0.0 2.0 0.07 0.42 0.42 95 1018.8
20260901184538 61 207 0.0 2.0 0.07 0.41 0.41 95 1018.6
20260901184017 61 207 0.0 2.0 0.08 0.41 0.41 95 1018.6
20260901183600 61 24 0.0 2.0 0.11 0.41 0.41 95 1018.5
20260901183038 61 171 0.0 1.0 0.13 0.40 0.40 95 1018.7
20260901182515 61 64 0.0 5.0 0.15 0.40 0.40 95 1018.7
20260901182057 62 50 1.0 5.0 0.17 0.38 0.38 95 1018.6
20260901181538 62 205 0.0 1.0 0.20 0.37 0.37 95 1018.7
20260901181013 62 207 0.0 2.0 0.21 0.37 0.37 95 1018.7
20260901180555 62 86 0.0 1.0 0.21 0.37 0.37 95 1018.7
20260901180034 62 239 0.0 1.0 0.21 0.37 0.37 95 1018.6
20260901175512 62 239 0.0 1.0 0.20 0.36 0.36 95 1018.4
20260901175055 62 239 0.0 1.0 0.19 0.35 0.35 95 1018.3
20260901174543 62 239 0.0 1.0 0.18 0.34 0.34 95 1018.2
20260901174018 62 239 0.0 2.0 0.17 0.33 0.33 94 1018.1